* Astronomy

Members Login
Username 
 
Password 
    Remember Me  
Post Info TOPIC: Chang Zheng-4B rocket body re-entry


L

Posts: 131433
Date:
RE: Chang Zheng-4B rocket body re-entry
Permalink  
 


Update:
The Chang Zheng-4B rocket body re-entered the Earths atmosphere on the 6th December, 2011 @ 00:05 GMT 1 minute.

Inclination: 97.19
Revolution Number: 16906
Predicted Location: 32N, 193E



__________________


L

Posts: 131433
Date:
Permalink  
 

Update:
The Chang Zheng-4B rocket body is predicted to re-enter the Earths atmosphere on the 5th December, 2011 @ 23:59 GMT 4 hours.

CZ-4B RB
1 33457U 08064B   11339.67655943  .08276078  24354-5  24383-3 0  1257
2 33457 097.1879 084.3619 0014090 281.4923 084.2189 16.43936163169009

Period: 87.84 minutes
Inclination: 97.19
Apogee: 177 km
Perigee: 158 km
Revolution Number: 16906
Predicted Location: 72.6N, 215E



__________________


L

Posts: 131433
Date:
Permalink  
 

Update:
The Chang Zheng-4B rocket body is predicted to re-enter the Earths atmosphere on the 6th December, 2011 @ 00:58 GMT 24 hours.

CZ-4B RB
1 33457U 08064B   11337.89931461 +.02250548 +23533-5 +64512-3 0 01176
2 33457 097.1907 082.3572 0016928 282.2020 077.8477 16.27146247168719

Period: 88.34 minutes
Inclination: 97.19
Apogee: 203 km
Perigee: 182 km
Revolution Number: 16906
Predicted Location: 13.3S, 358.5E



__________________


L

Posts: 131433
Date:
Permalink  
 

Update:
The Chang Zheng-4B rocket body is predicted to re-enter the Earths atmosphere on the 6th December, 2011 @ 02:41 GMT 48 hours.

CZ-4B RB
1 33457U 08064B   11336.23524031  .01382031  23211-5  67872-3 0  1092
2 33457 097.1926 080.5085 0018350 282.6082 077.3447 16.20608348168442

Period: 89.23 minutes
Inclination: 97.19
Apogee: 249 km
Perigee: 223 km
Revolution Number: 16909
Predicted Location: 45.3N, 323.8E



__________________


L

Posts: 131433
Date:
Permalink  
 

Update:
The Chang Zheng-4B rocket body is predicted to re-enter the Earths atmosphere on (or after) the 27th November, 2011 @ --:-- GMT -- hours.

CZ-4B RB
1 33457U 08064B   11327.54191655  .00576944  16157-3  81819-3 0   809
2 33457 097.1985 070.9984 0022773 316.3584 043.5927 16.05116284167043

Period: 89.78 minutes
Inclination: 97.20
Apogee: 279 km
Perigee: 248 km
Revolution Number: -
Predicted Location: -



__________________


L

Posts: 131433
Date:
Permalink  
 

A Chang Zheng-4B rocket body that was launched on the 15th December, 2008, from the Taiyaun Space Centre, for the Yaogan-5 satellite mission is predicted to re-enter the Earths atmosphere on the 19th November, 2011 @ --:-- GMT -- hours.

CZ-4B RB
1 33457U 08064B   11303.89496327  .00174026  12731-4  61360-3 0   174
2 33457 097.2103 045.7232 0030390 057.9312 302.4909 15.88329692163270

Period: 90.67 minutes
Inclination: 97.21
Apogee: 328 km
Perigee: 287 km
Revolution Number: -
Predicted Location: -



__________________
Page 1 of 1  sorted by
 
Quick Reply

Please log in to post quick replies.



Create your own FREE Forum
Report Abuse
Powered by ActiveBoard